Weather History for Rogers City, MI

Change the Weather History Date:

Monday, May 5, 2014

  Actual Average (KAPN) Record (KAPN)
Temperature  
Mean Temperature 36 °F 49 °F  
Max Temperature 42 °F 61 °F 92 °F (1949)
Min Temperature 30 °F 37 °F 22 °F (1958)
Degree Days  
Heating Degree Days 29 16  
Month to date heating degree days 83  
Since 1 July heating degree days 7642  
Cooling Degree Days 0 0  
Month to date cooling degree days 0  
Year to date cooling degree days 2  
Moisture  
Dew Point 34 °F    
Average Humidity 92    
Maximum Humidity 100    
Minimum Humidity 77    
Precipitation  
Precipitation 0.00 in 0.08 in 0.57 in (1991)
Month to date precipitation 0.39  
Year to date precipitation 7.62  
Sea Level Pressure  
Sea Level Pressure 30.08 in    
Wind  
Wind Speed 3 mph (NNW)    
Max Wind Speed 9 mph    
Max Gust Speed -    
Visibility 10 miles    
Events      
T = Trace of Precipitation, MM = Missing Value Source: NWS Daily Summary

Daily Weather History Graph

Daily Weather History Graph

Search for Another Location

Airport:

Trip Planner

Search our weather history database for the weather conditions in past years. The results will help you decide how hot, cold, wet, or windy it might be!

Date:

Astronomy

May. 05, 2014 Rise Set
Actual Time 6:17 AM EDT 8:46 PM EDT
Civil Twilight 5:44 AM EDT 9:20 PM EDT
Nautical Twilight 5:03 AM EDT 10:01 PM EDT
Astronomical Twilight 4:16 AM EDT 10:49 PM EDT
Moon 11:37 AM EDT (5/5) 1:29 AM EDT (5/5)
Length of Visible Light 15h 35m
Length of Day
14h 29m
Waxing Crescent, 36% of the Moon is Illuminated
May 5
Waxing Crescent
May 6
First Quarter
May 14
Full
May 21
Last Quarter
May 28
New

Hourly Weather History & Observations

Time (EDT) Temp. Windchill Dew Point Humidity Pressure Visibility Wind Dir Wind Speed Gust Speed Precip Events Conditions
12:14 AM 36.3 °F 33.7 °F 34.0 °F 91% 30.10 in 10.0 mi West 3.5 mph - N/A   Clear
12:35 AM 36.0 °F 33.3 °F 34.2 °F 93% 30.10 in 10.0 mi West 3.5 mph - N/A   Clear
12:55 AM 35.6 °F 31.7 °F 34.0 °F 94% 30.09 in 10.0 mi West 4.6 mph - N/A   Clear
1:14 AM 35.6 °F 32.8 °F 34.2 °F 94% 30.09 in 10.0 mi West 3.5 mph - N/A   Clear
1:35 AM 35.2 °F 31.2 °F 34.2 °F 96% 30.09 in 10.0 mi WNW 4.6 mph - N/A   Clear
1:55 AM 35.2 °F 31.2 °F 34.3 °F 97% 30.09 in 10.0 mi West 4.6 mph - N/A   Clear
2:14 AM 35.1 °F 31.0 °F 34.2 °F 97% 30.09 in 10.0 mi West 4.6 mph - N/A   Clear
2:35 AM 35.1 °F 31.0 °F 34.3 °F 97% 30.09 in 10.0 mi West 4.6 mph - N/A   Clear
2:55 AM 34.9 °F 32.0 °F 34.2 °F 97% 30.08 in 10.0 mi West 3.5 mph - N/A   Clear
3:15 AM 34.3 °F 28.4 °F 33.8 °F 98% 30.08 in 10.0 mi WSW 6.9 mph - N/A   Clear
3:35 AM 34.2 °F 29.0 °F 33.8 °F 99% 30.08 in 10.0 mi West 5.8 mph - N/A   Clear
3:54 AM 34.0 °F 29.8 °F 33.8 °F 99% 30.09 in 10.0 mi West 4.6 mph - N/A   Clear
4:15 AM 34.0 °F 31.0 °F 33.8 °F 99% 30.09 in 10.0 mi West 3.5 mph - N/A   Clear
4:35 AM 33.8 °F - 33.4 °F 99% 30.09 in 10.0 mi Calm Calm - N/A   Clear
4:54 AM 33.4 °F 30.4 °F 33.3 °F 99% 30.09 in 10.0 mi West 3.5 mph - N/A   Clear
5:15 AM 31.8 °F - 31.8 °F 100% 30.09 in 10.0 mi Calm Calm - N/A   Clear
5:35 AM 32.0 °F - 32.0 °F 100% 30.09 in 10.0 mi Calm Calm - N/A   Clear
5:54 AM 31.3 °F - 31.3 °F 100% 30.09 in 10.0 mi Calm Calm - N/A   Clear
6:15 AM 31.6 °F - 31.6 °F 100% 30.09 in 10.0 mi Calm Calm - N/A   Clear
6:35 AM 30.7 °F - 30.7 °F 100% 30.09 in 10.0 mi Calm Calm - N/A   Clear
6:54 AM 30.6 °F - 30.6 °F 100% 30.09 in 10.0 mi Calm Calm - N/A   Clear
7:15 AM 32.7 °F - 32.7 °F 100% 30.08 in 10.0 mi Calm Calm - N/A   Clear
7:35 AM 35.1 °F - 35.1 °F 100% 30.08 in 10.0 mi Calm Calm - N/A   Scattered Clouds
7:55 AM 36.0 °F 33.3 °F 36.0 °F 100% 30.09 in 10.0 mi WNW 3.5 mph - N/A   Mostly Cloudy
8:15 AM 35.8 °F 33.0 °F 35.8 °F 100% 30.09 in 1.5 mi WNW 3.5 mph - N/A   Overcast
8:35 AM 36.0 °F 32.1 °F 36.0 °F 100% 30.10 in 3.0 mi North 4.6 mph - N/A   Overcast
8:55 AM 36.5 °F - 36.5 °F 100% 30.11 in 10.0 mi Calm Calm - N/A   Mostly Cloudy
9:15 AM 37.9 °F - 37.6 °F 99% 30.10 in 5.0 mi Calm Calm - N/A   Overcast
9:34 AM 39.9 °F - 38.5 °F 95% 30.12 in 10.0 mi Calm Calm - N/A   Scattered Clouds
9:55 AM 39.4 °F - 37.4 °F 93% 30.12 in 10.0 mi Calm Calm - N/A   Clear
10:14 AM 37.8 °F 34.2 °F 36.7 °F 96% 30.12 in 10.0 mi North 4.6 mph - N/A   Mostly Cloudy
10:35 AM 36.5 °F 32.7 °F 35.6 °F 97% 30.11 in 10.0 mi North 4.6 mph - N/A   Mostly Cloudy
10:55 AM 38.8 °F 34.6 °F 37.2 °F 94% 30.10 in 10.0 mi North 5.8 mph - N/A   Mostly Cloudy
11:15 AM 39.0 °F 34.0 °F 36.7 °F 91% 30.10 in 10.0 mi North 6.9 mph - N/A   Scattered Clouds
11:35 AM 37.9 °F 33.5 °F 35.8 °F 92% 30.10 in 10.0 mi North 5.8 mph - N/A   Scattered Clouds
11:54 AM 37.4 °F 30.8 °F 35.1 °F 91% 30.10 in 10.0 mi North 9.2 mph - N/A   Mostly Cloudy
12:15 PM 36.9 °F 31.4 °F 35.1 °F 93% 30.10 in 10.0 mi North 6.9 mph - N/A   Overcast
12:35 PM 36.9 °F 33.1 °F 35.4 °F 95% 30.10 in 10.0 mi North 4.6 mph - N/A   Overcast
12:54 PM 37.6 °F 34.0 °F 35.6 °F 93% 30.10 in 10.0 mi North 4.6 mph - N/A   Overcast
1:15 PM 38.3 °F 34.8 °F 35.8 °F 91% 30.09 in 10.0 mi NNE 4.6 mph - N/A   Overcast
1:34 PM 39.6 °F 36.3 °F 36.7 °F 89% 30.09 in 10.0 mi North 4.6 mph - N/A   Overcast
2:15 PM 41.0 °F 38.0 °F 36.3 °F 83% 30.08 in 10.0 mi NE 4.6 mph - N/A   Overcast
2:34 PM 41.2 °F 38.2 °F 36.3 °F 83% 30.08 in 10.0 mi NE 4.6 mph - N/A   Overcast
2:55 PM 41.0 °F 36.4 °F 36.1 °F 83% 30.07 in 10.0 mi NNE 6.9 mph - N/A   Overcast
3:15 PM 40.8 °F 35.6 °F 36.1 °F 83% 30.07 in 10.0 mi North 8.1 mph - N/A   Overcast
3:35 PM 42.3 °F 38.6 °F 36.3 °F 79% 30.05 in 10.0 mi NE 5.8 mph - N/A   Overcast
3:55 PM 42.8 °F 40.1 °F 36.1 °F 77% 30.05 in 10.0 mi NE 4.6 mph - N/A   Overcast
4:14 PM 41.9 °F 38.2 °F 35.4 °F 78% 30.05 in 10.0 mi NNE 5.8 mph - N/A   Overcast
4:35 PM 41.0 °F 36.4 °F 35.4 °F 81% 30.05 in 10.0 mi NNE 6.9 mph - N/A   Overcast
4:55 PM 41.0 °F 37.1 °F 35.8 °F 82% 30.05 in 10.0 mi NNE 5.8 mph - N/A   Overcast
5:15 PM 40.8 °F 36.9 °F 35.2 °F 80% 30.06 in 10.0 mi NNE 5.8 mph - N/A   Overcast
5:34 PM 41.0 °F 37.1 °F 35.6 °F 81% 30.05 in 10.0 mi NE 5.8 mph - N/A   Overcast
5:55 PM 40.3 °F 37.1 °F 35.1 °F 82% 30.05 in 10.0 mi NE 4.6 mph - N/A   Mostly Cloudy
6:15 PM 40.3 °F 38.2 °F 34.7 °F 80% 30.04 in 10.0 mi NE 3.5 mph - N/A   Scattered Clouds
6:35 PM 40.5 °F 37.3 °F 34.7 °F 80% 30.04 in 10.0 mi NE 4.6 mph - N/A   Clear
6:55 PM 39.7 °F 36.5 °F 34.2 °F 80% 30.04 in 10.0 mi NE 4.6 mph - N/A   Clear
7:15 PM 39.2 °F 35.9 °F 34.2 °F 82% 30.03 in 10.0 mi NE 4.6 mph - N/A   Clear
7:35 PM 39.6 °F 37.4 °F 34.0 °F 80% 30.03 in 10.0 mi East 3.5 mph - N/A   Clear
7:55 PM 39.2 °F - 33.8 °F 81% 30.03 in 10.0 mi Calm Calm - N/A   Clear
8:15 PM 39.7 °F - 33.8 °F 79% 30.03 in 10.0 mi Calm Calm - N/A   Clear
8:35 PM 38.7 °F - 34.2 °F 84% 30.03 in 10.0 mi Calm Calm - N/A   Clear
8:55 PM 36.5 °F - 33.8 °F 90% 30.03 in 10.0 mi Calm Calm - N/A   Clear
9:15 PM 36.7 °F - 33.8 °F 89% 30.04 in 10.0 mi Calm Calm - N/A   Clear
9:34 PM 34.7 °F 31.8 °F 32.7 °F 92% 30.05 in 10.0 mi North 3.5 mph - N/A   Clear
9:55 PM 34.9 °F - 32.7 °F 92% 30.06 in 10.0 mi Calm Calm - N/A   Clear
10:15 PM 32.0 °F - 31.3 °F 97% 30.06 in 10.0 mi Calm Calm - N/A   Clear
10:34 PM 32.9 °F - 32.0 °F 96% 30.06 in 10.0 mi Calm Calm - N/A   Clear
10:55 PM 32.0 °F 28.7 °F 31.5 °F 98% 30.06 in 10.0 mi WSW 3.5 mph - N/A   Clear
11:14 PM 32.0 °F 28.7 °F 31.5 °F 98% 30.07 in 10.0 mi WSW 3.5 mph - N/A   Clear
11:35 PM 31.1 °F 27.7 °F 30.9 °F 99% 30.07 in 10.0 mi WSW 3.5 mph - N/A   Clear
11:55 PM 32.2 °F - 32.0 °F 99% 30.07 in 10.0 mi Calm Calm - N/A   Clear